This is the latest recevied weather packets stored in our database for station/object C31FR-13. If no packets are shown the sender has not sent any weather packets the latest 10 day(s).
| Time | Temp. | Humidity | Pressure | Rain* | Wind** | Luminosity | Snow |
|---|---|---|---|---|---|---|---|
| 1778091063 | 11.11° C | 86% | 1012.3 hPa | - | - | - | - |
| 1778090763 | 11.11° C | 87% | 1012.2 hPa | - | - | - | - |
| 1778090463 | 11.11° C | 87% | 1012.1 hPa | - | - | - | - |
| 1778090163 | 11.11° C | 89% | 1012.1 hPa | - | - | - | - |
| 1778089863 | 11.11° C | 88% | 1012.1 hPa | - | - | - | - |
| 1778089563 | 11.11° C | 81% | 1012.1 hPa | - | - | - | - |
| 1778089262 | 11.11° C | 83% | 1012 hPa | - | - | - | - |
| 1778088963 | 11.67° C | 87% | 1011.9 hPa | - | - | - | - |
| 1778088662 | 11.67° C | 88% | 1012 hPa | - | - | - | - |
| 1778088364 | 11.67° C | 87% | 1012 hPa | - | - | - | - |
| 1778088062 | 11.67° C | 91% | 1011.9 hPa | - | - | - | - |
| 1778087762 | 11.67° C | 90% | 1011.9 hPa | - | - | - | - |
| 1778087463 | 11.11° C | 93% | 1011.7 hPa | - | - | - | - |
| 1778087163 | 11.11° C | 92% | 1011.5 hPa | - | - | - | - |
| 1778086862 | 11.11° C | 90% | 1011.4 hPa | - | - | - | - |
| 1778086562 | 11.67° C | 89% | 1011.3 hPa | - | - | - | - |
| 1778086263 | 11.67° C | 88% | 1011.2 hPa | - | - | - | - |
| 1778085963 | 11.67° C | 84% | 1011.2 hPa | - | - | - | - |
| 1778085663 | 11.67° C | 76% | 1011.1 hPa | - | - | - | - |
| 1778085363 | 12.22° C | 78% | 1011 hPa | - | - | - | - |
| 1778085064 | 12.22° C | 73% | 1011 hPa | - | - | - | - |
| 1778084762 | 12.22° C | 76% | 1010.9 hPa | - | - | - | - |
| 1778084462 | 12.22° C | 72% | 1010.9 hPa | - | - | - | - |
| 1778084163 | 12.78° C | 70% | 1010.8 hPa | - | - | - | - |
| 1778083862 | 12.78° C | 77% | 1010.8 hPa | - | - | - | - |
* Rain since midnight (hover to see other rain measurements)
** Current wind speed in m/s (hover to see current wind gust speed)